GSAT-9

Last updated on May 23, 2019, 3:05 a.m. UTC

1 42695U 17024A   19142.05231282 -.00000294  00000-0  00000+0 0  9995
2 42695   0.1120 101.5148 0002906 315.7313 298.2750  1.00270544  7533
UTC
Height (km)
Latitude
Longitude
Inclination
Orbital Period
UTC large
Height (km)
Speed (km/s)
/
Latitude / Longitude
Inclination (degrees)
Orbital Period (minutes)
Azimuth
Elevation
Range (km)
Doppler Factor
iOS Compass Heading
iOS Angle

Next 30 passes for location: Hong Kong

Rise time Rise Azimuth (degrees) Set time Set Azimuth (degrees) Duration Max altitude (degrees)

No matching passes for this satellites